GW5922 Weather Reports


Display with metric or nautical units.
time (UTC)temp
F
wind
direction
speed
MPH
gust
MPH
rain 1hr
in
rain 24hr
in
rain mn
in
humidity
%
barometer
mb
20260506172531 60 224 3.0 10.0 0.05 0.22 0.22 94 1007.2
20260506172027 60 250 3.0 11.0 0.05 0.21 0.21 94 1007.2
20260506171525 60 238 4.0 11.0 0.05 0.21 0.21 94 1007.2
20260506171022 60 96 3.0 9.0 0.04 0.20 0.20 94 1007.5
20260506170520 60 223 3.0 8.0 0.04 0.20 0.20 94 1007.2
20260506170012 60 132 2.0 8.0 0.03 0.19 0.19 94 1007.2
20260506165510 60 240 3.0 9.0 0.03 0.18 0.18 93 1007.5
20260506165005 59 263 4.0 10.0 0.02 0.17 0.17 93 1007.2
20260506164502 60 205 3.0 13.0 0.04 0.17 0.17 93 1007.2
20260506164000 60 142 3.0 13.0 0.06 0.17 0.17 93 1007.5
20260506163455 60 75 3.0 10.0 0.07 0.17 0.17 93 1007.2
20260506162950 60 37 3.0 9.0 0.08 0.17 0.17 93 1007.5
20260506162449 60 252 3.0 11.0 0.10 0.17 0.17 93 1007.2
20260506161945 60 279 3.0 11.0 0.09 0.16 0.16 93 1007.5
20260506161443 60 160 3.0 9.0 0.09 0.16 0.16 93 1007.5
20260506160935 60 230 2.0 8.0 0.09 0.16 0.16 93 1007.2
20260506160432 60 96 3.0 9.0 0.09 0.16 0.16 92 1007.5
20260506155929 60 214 3.0 9.0 0.09 0.15 0.15 92 1007.2
20260506155426 60 153 3.0 10.0 0.09 0.15 0.15 92 1007.5
20260506153548 60 227 3.0 9.0 0.06 0.10 0.10 92 1008.2
20260506153046 60 252 2.0 9.0 0.05 0.09 0.09 91 1008.5
20260506152543 61 142 3.0 11.0 0.05 0.08 0.08 91 1008.5
20260506152041 61 301 3.0 10.0 0.05 0.07 0.07 91 1008.5
20260506151539 61 106 2.0 10.0 0.06 0.07 0.07 91 1008.2
20260506151035 61 110 2.0 8.0 0.06 0.07 0.07 91 1008.2
20260506150532 61 149 1.0 6.0 0.06 0.07 0.07 91 1008.2
20260506150029 61 139 1.0 5.0 0.05 0.06 0.06 91 1008.2
20260506145525 61 165 1.0 5.0 0.05 0.06 0.06 90 1008.2
20260506145023 61 240 1.0 5.0 0.05 0.06 0.06 90 1008.2
20260506144519 61 291 1.0 5.0 0.05 0.05 0.05 90 1008.2
20260506144017 61 269 2.0 7.0 0.05 0.05 0.05 90 1008.2
20260506143514 61 261 2.0 7.0 0.04 0.04 0.04 89 1008.2
20260506143013 61 321 3.0 9.0 0.04 0.04 0.04 89 1008.2
20260506142510 61 231 4.0 12.0 0.03 0.03 0.03 88 1008.2
20260506142008 62 245 4.0 12.0 0.02 0.02 0.02 88 1008.5
20260506141506 62 253 3.0 8.0 0.01 0.02 0.02 87 1008.2
20260506141004 62 246 4.0 10.0 0.01 0.01 0.01 87 1008.2
20260506140501 62 245 4.0 10.0 0.01 0.01 0.01 86 1008.2
20260506135957 62 238 3.0 9.0 0.01 0.01 0.01 86 1008.2
20260506135455 62 266 3.0 12.0 0.01 0.01 0.01 86 1008.2
20260506134951 62 258 4.0 11.0 0.00 0.00 0.00 86 1008.2
20260506134447 62 223 4.0 10.0 0.00 0.00 0.00 86 1008.2
20260506133944 62 247 4.0 10.0 0.00 0.00 0.00 85 1008.5
20260506133441 62 257 4.0 8.0 0.00 0.00 0.00 85 1008.5
20260506132938 62 268 5.0 11.0 0.00 0.00 0.00 85 1008.5
20260506132435 62 237 5.0 11.0 0.00 0.00 0.00 84 1008.5
20260506131932 62 242 6.0 11.0 0.00 0.00 0.00 84 1008.2
20260506131428 62 264 7.0 15.0 0.00 0.00 0.00 84 1008.5
20260506130925 63 129 7.0 17.0 0.00 0.00 0.00 83 1008.5
20260506130422 63 262 7.0 15.0 0.00 0.00 0.00 82 1008.5
20260506125920 63 184 6.0 15.0 0.00 0.00 0.00 81 1008.5
20260506125418 64 252 5.0 13.0 0.00 0.00 0.00 80 1008.5
20260506124916 64 249 7.0 18.0 0.00 0.00 0.00 79 1008.5
20260506124413 64 239 7.0 18.0 0.00 0.00 0.00 79 1008.5
20260506123911 64 274 7.0 16.0 0.00 0.00 0.00 78 1008.5
20260506123409 64 245 6.0 17.0 0.00 0.00 0.00 78 1008.5
20260506122906 64 226 4.0 17.0 0.00 0.00 0.00 78 1008.2
20260506122402 64 68 3.0 11.0 0.00 0.00 0.00 78 1008.2
20260506121901 64 101 3.0 9.0 0.00 0.00 0.00 78 1008.2
20260506121357 64 235 3.0 10.0 0.00 0.00 0.00 78 1008.2
20260506120854 64 150 3.0 13.0 0.00 0.00 0.00 78 1008.2
20260506120352 64 254 3.0 13.0 0.00 0.00 0.00 78 1008.2
20260506115849 64 217 3.0 11.0 0.00 0.00 0.00 78 1008.2
20260506115347 64 210 4.0 11.0 0.00 0.00 0.00 78 1008.2
20260506114845 64 245 3.0 11.0 0.00 0.00 0.00 78 1008.2
20260506114342 64 248 3.0 11.0 0.00 0.00 0.00 78 1008.2
20260506113841 64 253 4.0 11.0 0.00 0.00 0.00 78 1008.2
20260506113338 64 248 5.0 12.0 0.00 0.00 0.00 78 1008.2
20260506112835 64 227 4.0 14.0 0.00 0.00 0.00 78 1008.5
20260506112332 64 338 4.0 13.0 0.00 0.00 0.00 78 1008.5
20260506111829 64 257 3.0 13.0 0.00 0.00 0.00 78 1008.2
20260506111328 64 283 3.0 13.0 0.00 0.00 0.00 78 1008.2
20260506110825 64 276 3.0 13.0 0.00 0.00 0.00 78 1008.2
20260506110322 64 99 3.0 13.0 0.00 0.00 0.00 78 1008.2
20260506105819 64 32 3.0 13.0 0.00 0.00 0.00 78 1008.2
20260506105315 64 194 2.0 13.0 0.00 0.00 0.00 79 1008.2
20260506104812 64 233 1.0 8.0 0.00 0.00 0.00 79 1007.8
20260506104310 64 115 2.0 8.0 0.00 0.00 0.00 79 1007.8
20260506103808 63 11 2.0 7.0 0.00 0.00 0.00 79 1007.8
20260506103305 63 108 1.0 6.0 0.00 0.00 0.00 79 1007.8
20260506102802 63 194 1.0 5.0 0.00 0.00 0.00 79 1007.8
20260506102300 63 299 2.0 7.0 0.00 0.00 0.00 79 1007.8
20260506101757 63 254 1.0 7.0 0.00 0.00 0.00 79 1007.8
20260506101253 63 135 1.0 3.0 0.00 0.00 0.00 78 1007.8
20260506100751 64 221 1.0 4.0 0.00 0.00 0.00 78 1007.5
20260506100249 64 172 1.0 8.0 0.00 0.00 0.00 77 1007.8
20260506095748 64 28 2.0 8.0 0.00 0.00 0.00 77 1007.8
20260506095244 64 261 2.0 11.0 0.00 0.00 0.00 77 1008.2
20260506094740 64 347 3.0 11.0 0.00 0.00 0.00 77 1008.2
20260506094239 64 227 2.0 9.0 0.00 0.00 0.00 76 1007.8
20260506093737 64 257 2.0 8.0 0.00 0.00 0.00 76 1007.8
20260506093234 64 176 2.0 9.0 0.00 0.00 0.00 75 1007.8
20260506092732 64 120 3.0 11.0 0.00 0.00 0.00 75 1007.8
20260506092230 64 233 3.0 11.0 0.00 0.00 0.00 75 1007.8
20260506091727 64 233 2.0 11.0 0.00 0.00 0.00 75 1007.8
20260506091224 64 190 2.0 11.0 0.00 0.00 0.00 75 1007.8
20260506090722 64 255 2.0 10.0 0.00 0.00 0.00 74 1007.5
20260506090218 65 96 3.0 12.0 0.00 0.00 0.00 74 1007.8
20260506085715 65 275 3.0 10.0 0.00 0.00 0.00 73 1007.8
20260506085211 65 291 3.0 10.0 0.00 0.00 0.00 73 1007.8
20260506084708 65 258 3.0 10.0 0.00 0.00 0.00 73 1007.8
20260506084204 65 248 2.0 12.0 0.00 0.00 0.00 73 1008.2
20260506083701 65 139 2.0 12.0 0.00 0.00 0.00 72 1007.8
20260506083159 65 265 3.0 9.0 0.00 0.00 0.00 72 1007.8
20260506082656 65 269 3.0 11.0 0.00 0.00 0.00 72 1008.2
20260506082156 65 108 2.0 11.0 0.00 0.00 0.00 71 1008.2
20260506081655 65 249 3.0 9.0 0.00 0.00 0.00 71 1008.2
20260506081152 65 139 3.0 11.0 0.00 0.00 0.00 71 1008.2
20260506080650 65 269 3.0 11.0 0.00 0.00 0.00 71 1007.8
20260506080146 65 328 3.0 10.0 0.00 0.00 0.00 70 1007.8
20260506073130 65 259 3.0 8.0 0.00 0.00 0.00 69 1008.2
20260506072627 65 266 2.0 8.0 0.00 0.00 0.00 69 1008.2
20260506072125 65 242 2.0 8.0 0.00 0.00 0.00 68 1008.2
20260506071622 65 132 2.0 8.0 0.00 0.00 0.00 68 1008.2
20260506071120 65 220 2.0 8.0 0.00 0.00 0.00 68 1008.2
20260506070616 66 247 3.0 7.0 0.00 0.00 0.00 67 1008.2
20260506070114 66 252 3.0 10.0 0.00 0.00 0.00 67 1008.2
20260506062051 66 298 2.0 8.0 0.00 0.00 0.00 66 1008.5
20260506061546 66 221 2.0 8.0 0.00 0.00 0.00 65 1008.5
20260506061044 66 195 3.0 13.0 0.00 0.00 0.00 65 1008.5
20260506060543 67 271 4.0 13.0 0.00 0.00 0.00 65 1008.9
20260506051011 66 131 1.0 7.0 0.00 0.00 0.00 65 1008.9
20260506050509 65 101 1.0 4.0 0.00 0.00 0.00 66 1008.9
20260506044959 65 279 2.0 6.0 0.00 0.00 0.00 65 1009.3
20260506044458 65 261 1.0 6.0 0.00 0.00 0.00 65 1009.3
20260506043954 65 129 1.0 6.0 0.00 0.00 0.00 65 1009.3
20260506043451 65 242 0.0 4.0 0.00 0.00 0.00 65 1009.3
20260506042949 65 153 1.0 4.0 0.00 0.00 0.00 64 1009.3
20260506042448 66 131 1.0 4.0 0.00 0.00 0.00 64 1009.3
20260506041946 66 149 1.0 6.0 0.00 0.00 0.00 64 1009.3
20260506041443 66 22 1.0 6.0 0.00 0.00 0.00 63 1009.3
20260506040940 66 115 1.0 5.0 0.00 0.00 0.00 63 1009.3
20260506040438 66 199 1.0 5.0 0.00 0.00 0.00 63 1009.3
20260506035934 66 323 1.0 5.0 0.00 0.04 0.04 63 1009.3
20260506035431 66 323 1.0 4.0 0.00 0.04 0.04 62 1008.9
20260506034928 67 249 2.0 7.0 0.00 0.04 0.04 62 1009.3
20260506034425 67 180 1.0 7.0 0.00 0.04 0.04 62 1009.3
20260506033922 67 269 1.0 5.0 0.00 0.04 0.04 61 1009.3
20260506033419 67 75 1.0 6.0 0.00 0.04 0.04 61 1009.3
20260506032916 67 221 1.0 6.0 0.00 0.04 0.04 61 1008.9
20260506032413 67 129 1.0 3.0 0.00 0.04 0.04 61 1009.3
20260506031910 67 271 1.0 3.0 0.00 0.04 0.04 60 1008.9
20260506031407 67 145 1.0 3.0 0.00 0.04 0.04 60 1008.9
20260506030905 68 280 1.0 5.0 0.00 0.04 0.04 59 1009.3
20260506030403 68 272 1.0 6.0 0.00 0.04 0.04 59 1008.9
20260506025859 68 169 1.0 6.0 0.00 0.04 0.04 58 1008.9
20260506025356 68 307 1.0 4.0 0.00 0.04 0.04 58 1008.9
20260506024853 69 234 1.0 5.0 0.00 0.04 0.04 57 1008.9
20260506024350 69 235 1.0 8.0 0.00 0.04 0.04 56 1008.9
20260506023846 70 124 3.0 10.0 0.00 0.04 0.04 55 1009.3
20260506023343 70 283 4.0 10.0 0.00 0.04 0.04 55 1009.3
20260506022839 70 86 3.0 10.0 0.00 0.04 0.04 54 1009.3
20260506022337 70 137 3.0 9.0 0.00 0.04 0.04 54 1009.3
20260506021835 70 262 3.0 10.0 0.00 0.04 0.04 54 1008.9
20260506021332 71 242 2.0 10.0 0.00 0.04 0.04 53 1008.9
20260506020828 71 184 2.0 13.0 0.00 0.04 0.04 53 1008.9
20260506020326 71 273 2.0 13.0 0.00 0.04 0.04 53 1008.9
20260506015824 71 129 2.0 8.0 0.00 0.04 0.04 52 1008.9
20260506015321 71 234 2.0 8.0 0.00 0.04 0.04 52 1008.9
20260506014817 71 255 3.0 8.0 0.00 0.04 0.04 51 1008.9
20260506014314 71 231 3.0 8.0 0.00 0.04 0.04 51 1008.9
20260506013811 72 255 3.0 8.0 0.00 0.04 0.04 50 1008.9
20260506013308 72 283 3.0 9.0 0.00 0.04 0.04 50 1008.9
20260506012805 72 243 4.0 13.0 0.00 0.04 0.04 50 1008.5
20260506012307 72 245 3.0 13.0 0.00 0.04 0.04 50 1008.5
20260506011759 72 257 3.0 11.0 0.00 0.04 0.04 49 1008.5
20260506011255 72 224 3.0 11.0 0.00 0.04 0.04 49 1008.5
20260506010754 72 262 3.0 10.0 0.00 0.04 0.04 49 1008.2
20260506010251 73 295 4.0 10.0 0.00 0.04 0.04 49 1008.2
20260506005748 73 184 4.0 10.0 0.00 0.04 0.04 49 1008.2
20260506005245 73 257 4.0 17.0 0.00 0.04 0.04 49 1008.2
20260506004740 73 200 5.0 17.0 0.00 0.04 0.04 48 1008.2
20260506004238 73 79 4.0 15.0 0.00 0.04 0.04 48 1008.2
20260506003734 73 58 4.0 13.0 0.00 0.04 0.04 49 1008.2
20260506003231 73 142 3.0 10.0 0.00 0.04 0.04 49 1008.2
20260506002726 73 248 3.0 12.0 0.00 0.04 0.04 49 1007.8
20260506002223 73 260 3.0 12.0 0.00 0.04 0.04 49 1007.8
20260506001719 73 322 3.0 10.0 0.00 0.04 0.04 49 1007.8
20260506001217 73 84 3.0 10.0 0.00 0.04 0.04 48 1007.8
20260506000713 74 244 3.0 12.0 0.00 0.04 0.04 48 1007.8
20260506000212 74 224 4.0 16.0 0.00 0.04 0.04 47 1007.8
20260505235708 75 264 5.0 18.0 0.00 0.04 0.04 47 1007.8
20260505235206 75 195 5.0 18.0 0.00 0.04 0.04 47 1007.8
20260505234702 75 256 5.0 14.0 0.00 0.04 0.04 47 1007.8
20260505234200 75 239 4.0 14.0 0.00 0.04 0.04 47 1007.5
20260505233657 75 217 4.0 12.0 0.00 0.04 0.04 47 1007.5
20260505233155 75 252 3.0 10.0 0.00 0.04 0.04 46 1007.8
20260505232652 76 134 4.0 16.0 0.00 0.04 0.04 46 1007.5
20260505232150 76 8 6.0 16.0 0.00 0.04 0.04 45 1007.5
20260505231646 76 117 6.0 16.0 0.00 0.04 0.04 45 1007.5
20260505231145 76 252 8.0 26.0 0.00 0.04 0.04 45 1007.5
20260505230642 76 230 8.0 26.0 0.00 0.04 0.04 45 1007.5
20260505230138 76 273 5.0 15.0 0.00 0.04 0.04 45 1007.5
20260505225634 76 90 5.0 16.0 0.00 0.04 0.04 45 1007.5
20260505225131 77 155 5.0 17.0 0.00 0.04 0.04 45 1007.2
20260505224627 77 349 5.0 19.0 0.00 0.04 0.04 44 1007.2
20260505224125 78 214 7.0 20.0 0.00 0.04 0.04 44 1007.2
20260505223622 78 323 10.0 24.0 0.00 0.04 0.04 43 1007.2
20260505223118 78 214 10.0 24.0 0.00 0.04 0.04 41 1007.2
20260505222615 78 238 9.0 20.0 0.00 0.04 0.04 41 1007.2
20260505222111 78 176 8.0 20.0 0.00 0.04 0.04 42 1007.2
20260505221603 78 226 6.0 17.0 0.00 0.04 0.04 42 1007.2
20260505221059 78 121 6.0 17.0 0.00 0.04 0.04 42 1006.8
20260505220556 79 89 8.0 23.0 0.00 0.04 0.04 42 1007.2
20260505220054 79 83 7.0 23.0 0.00 0.04 0.04 41 1006.8
20260505215552 78 213 7.0 22.0 0.00 0.04 0.04 44 1006.8
20260505215050 78 89 6.0 22.0 0.00 0.04 0.04 43 1006.8
20260505214548 79 274 6.0 15.0 0.00 0.04 0.04 43 1006.8
20260505214044 80 231 8.0 19.0 0.00 0.04 0.04 42 1007.2
20260505213542 80 258 9.0 20.0 0.00 0.04 0.04 41 1007.2
20260505213038 80 219 9.0 20.0 0.00 0.04 0.04 41 1007.2
20260505212535 80 259 9.0 22.0 0.00 0.04 0.04 40 1006.8
20260505212032 80 241 8.0 22.0 0.00 0.04 0.04 39 1007.2
20260505211529 80 268 8.0 20.0 0.00 0.04 0.04 40 1006.8
20260505211026 80 93 9.0 21.0 0.00 0.04 0.04 41 1006.8
20260505210522 80 245 10.0 24.0 0.00 0.04 0.04 40 1006.8
20260505210020 80 231 9.0 24.0 0.00 0.04 0.04 39 1006.8
20260505205518 80 244 10.0 24.0 0.00 0.04 0.04 40 1006.8
20260505205015 80 44 11.0 24.0 0.00 0.04 0.04 41 1007.2
20260505204512 80 276 11.0 24.0 0.00 0.04 0.04 40 1006.8
20260505204009 80 208 10.0 24.0 0.00 0.04 0.04 41 1006.8
20260505203506 81 139 8.0 22.0 0.00 0.04 0.04 41 1006.8
20260505203003 80 181 7.0 22.0 0.00 0.04 0.04 40 1006.5
20260505202459 80 236 7.0 22.0 0.00 0.04 0.04 42 1006.8
20260505201955 80 211 8.0 22.0 0.00 0.04 0.04 43 1006.8
20260505201452 80 295 10.0 20.0 0.00 0.04 0.04 42 1006.8
20260505200949 80 266 11.0 27.0 0.00 0.04 0.04 41 1006.8
20260505200447 80 264 13.0 27.0 0.00 0.04 0.04 42 1007.2
20260505195943 80 258 14.0 26.0 0.00 0.04 0.04 42 1007.2
20260505195440 80 276 13.0 26.0 0.00 0.04 0.04 42 1006.8
20260505194937 80 122 10.0 25.0 0.00 0.04 0.04 42 1007.2
20260505194435 81 265 9.0 21.0 0.00 0.04 0.04 41 1007.2
20260505193934 80 105 10.0 18.0 0.00 0.04 0.04 42 1007.2
20260505193432 80 268 9.0 18.0 0.00 0.04 0.04 42 1007.2
20260505192930 80 259 9.0 20.0 0.00 0.04 0.04 42 1007.2
20260505192428 80 264 11.0 20.0 0.00 0.04 0.04 41 1007.2
20260505191925 80 281 13.0 21.0 0.00 0.04 0.04 39 1007.2
20260505191424 80 198 13.0 21.0 0.00 0.04 0.04 38 1007.2
20260505190920 80 281 15.0 23.0 0.00 0.04 0.04 37 1007.2
20260505190416 80 239 16.0 24.0 0.00 0.04 0.04 38 1007.2
20260505185911 80 285 15.0 24.0 0.00 0.04 0.04 38 1007.2
20260505185409 80 259 13.0 24.0 0.00 0.04 0.04 39 1007.2
20260505184904 80 258 12.0 24.0 0.00 0.04 0.04 39 1007.5
20260505184401 80 207 15.0 26.0 0.00 0.04 0.04 40 1007.5
20260505183859 80 269 16.0 26.0 0.00 0.04 0.04 37 1007.5
20260505183355 80 265 16.0 30.0 0.00 0.04 0.04 38 1007.5
20260505182852 80 274 15.0 30.0 0.00 0.04 0.04 38 1007.5
20260505182349 80 235 16.0 27.0 0.00 0.04 0.04 40 1007.8
20260505181845 80 274 15.0 27.0 0.00 0.04 0.04 39 1007.5
20260505181343 80 255 12.0 27.0 0.00 0.04 0.04 39 1007.5
20260505180839 80 268 11.0 20.0 0.00 0.04 0.04 42 1007.8
20260505180336 80 266 11.0 22.0 0.00 0.04 0.04 41 1007.8
20260505175833 79 269 16.0 29.0 0.00 0.04 0.04 41 1007.8
20260505175329 79 263 17.0 29.0 0.00 0.04 0.04 42 1008.2
20260505174825 79 262 15.0 24.0 0.00 0.04 0.04 42 1008.2
20260505174323 79 228 15.0 25.0 0.00 0.04 0.04 43 1008.2
20260505173819 79 256 12.0 25.0 0.00 0.04 0.04 42 1008.2
20260505173315 79 266 11.0 24.0 0.00 0.04 0.04 43 1008.2
20260505172813 79 269 10.0 22.0 0.00 0.04 0.04 45 1008.2